| time (UTC) | temp F | wind direction | speed knots | gust knots | rain 1hr in | rain 24hr in | rain mn in | humidity % | barometer mb |
| 20260504204458 | 79 | 210 | 6.1 | 8.7 | 0.00 | 0.00 | 0.00 | 53 | 1005.6 |
| 20260504203957 | 80 | 193 | 4.3 | 7.0 | 0.00 | 0.00 | 0.00 | 53 | 1005.4 |
| 20260504203454 | 79 | 341 | 3.5 | 6.1 | 0.00 | 0.00 | 0.00 | 49 | 1005.5 |
| 20260504202950 | 79 | 243 | 6.1 | 7.0 | 0.00 | 0.00 | 0.00 | 50 | 1005.6 |
| 20260504202446 | 79 | 222 | 7.0 | 8.7 | 0.00 | 0.00 | 0.00 | 51 | 1005.5 |
| 20260504201943 | 80 | 144 | 9.6 | 12.2 | 0.00 | 0.00 | 0.00 | 49 | 1005.9 |
| 20260504201441 | 79 | 267 | 2.6 | 4.3 | 0.00 | 0.00 | 0.00 | 52 | 1005.9 |
| 20260504200938 | 79 | 278 | 3.5 | 4.3 | 0.00 | 0.00 | 0.00 | 52 | 1006.0 |
| 20260504200435 | 79 | 283 | 11.3 | 15.6 | 0.00 | 0.00 | 0.00 | 49 | 1006.1 |
| 20260504195931 | 78 | 213 | 7.0 | 10.4 | 0.00 | 0.00 | 0.00 | 52 | 1006.2 |
| 20260504195427 | 79 | 211 | 9.6 | 13.0 | 0.00 | 0.00 | 0.00 | 50 | 1006.1 |
| 20260504194924 | 78 | 105 | 7.8 | 13.0 | 0.00 | 0.00 | 0.00 | 52 | 1006.0 |
| 20260504194420 | 80 | 163 | 7.8 | 9.6 | 0.00 | 0.00 | 0.00 | 50 | 1006.1 |
| 20260504193916 | 79 | 192 | 3.5 | 4.3 | 0.00 | 0.00 | 0.00 | 53 | 1006.1 |
| 20260504193414 | 78 | 206 | 12.2 | 18.2 | 0.00 | 0.00 | 0.00 | 50 | 1006.1 |
| 20260504192912 | 78 | 178 | 4.3 | 8.7 | 0.00 | 0.00 | 0.00 | 51 | 1006.1 |
| 20260504192409 | 78 | 188 | 7.8 | 12.2 | 0.00 | 0.00 | 0.00 | 50 | 1006.3 |
| 20260504191908 | 78 | 185 | 10.4 | 13.0 | 0.00 | 0.00 | 0.00 | 50 | 1006.3 |
| 20260504191405 | 78 | 204 | 9.6 | 12.2 | 0.00 | 0.00 | 0.00 | 49 | 1006.1 |
| 20260504190900 | 78 | 279 | 14.8 | 20.0 | 0.00 | 0.00 | 0.00 | 48 | 1006.4 |
| 20260504190356 | 78 | 269 | 7.8 | 12.2 | 0.00 | 0.00 | 0.00 | 51 | 1006.3 |
| 20260504185853 | 79 | 233 | 7.8 | 13.0 | 0.00 | 0.00 | 0.00 | 50 | 1006.3 |
| 20260504185350 | 78 | 187 | 5.2 | 6.1 | 0.00 | 0.00 | 0.00 | 51 | 1006.4 |
| 20260504184846 | 78 | 238 | 9.6 | 15.6 | 0.00 | 0.00 | 0.00 | 49 | 1006.5 |
| 20260504184342 | 78 | 199 | 3.5 | 7.0 | 0.00 | 0.00 | 0.00 | 53 | 1006.4 |
| 20260504183838 | 77 | 190 | 13.0 | 16.5 | 0.00 | 0.00 | 0.00 | 50 | 1006.9 |
| 20260504183336 | 78 | 262 | 7.8 | 10.4 | 0.00 | 0.00 | 0.00 | 49 | 1006.8 |
| 20260504182833 | 77 | 208 | 13.0 | 16.5 | 0.00 | 0.00 | 0.00 | 50 | 1006.9 |
| 20260504182331 | 77 | 231 | 9.6 | 15.6 | 0.00 | 0.00 | 0.00 | 51 | 1006.5 |
| 20260504181827 | 77 | 211 | 7.8 | 10.4 | 0.00 | 0.00 | 0.00 | 51 | 1006.9 |
| 20260504181325 | 77 | 156 | 10.4 | 12.2 | 0.00 | 0.00 | 0.00 | 52 | 1006.9 |
| 20260504180824 | 77 | 203 | 8.7 | 10.4 | 0.00 | 0.00 | 0.00 | 50 | 1007.1 |
| 20260504180322 | 77 | 180 | 6.1 | 9.6 | 0.00 | 0.00 | 0.00 | 52 | 1007.1 |
| 20260504175820 | 77 | 213 | 9.6 | 12.2 | 0.00 | 0.00 | 0.00 | 50 | 1007.0 |
| 20260504175316 | 77 | 221 | 7.0 | 9.6 | 0.00 | 0.00 | 0.00 | 50 | 1007.0 |
| 20260504174815 | 76 | 189 | 11.3 | 13.0 | 0.00 | 0.00 | 0.00 | 49 | 1007.0 |
| 20260504174311 | 76 | 145 | 10.4 | 13.9 | 0.00 | 0.00 | 0.00 | 51 | 1007.2 |
| 20260504173808 | 76 | 191 | 6.1 | 9.6 | 0.00 | 0.00 | 0.00 | 52 | 1007.3 |
| 20260504173305 | 76 | 200 | 7.0 | 8.7 | 0.00 | 0.00 | 0.00 | 54 | 1007.3 |
| 20260504172802 | 76 | 251 | 13.9 | 18.2 | 0.00 | 0.00 | 0.00 | 50 | 1007.5 |
| 20260504172259 | 76 | 207 | 5.2 | 7.0 | 0.00 | 0.00 | 0.00 | 51 | 1007.2 |
| 20260504171754 | 76 | 223 | 12.2 | 18.2 | 0.00 | 0.00 | 0.00 | 51 | 1007.4 |
| 20260504171252 | 76 | 147 | 8.7 | 12.2 | 0.00 | 0.00 | 0.00 | 51 | 1007.7 |
| 20260504170749 | 75 | 213 | 7.8 | 12.2 | 0.00 | 0.00 | 0.00 | 53 | 1007.3 |
| 20260504170246 | 75 | 213 | 7.0 | 8.7 | 0.00 | 0.00 | 0.00 | 54 | 1007.6 |
| 20260504160204 | 74 | 233 | 3.5 | 4.3 | 0.00 | 0.00 | 0.00 | 51 | 1008.0 |
| 20260504151132 | 72 | 202 | 11.3 | 13.0 | 0.00 | 0.00 | 0.00 | 52 | 1008.5 |
| 20260504150630 | 72 | 193 | 1.7 | 6.1 | 0.00 | 0.00 | 0.00 | 54 | 1008.6 |
| 20260504150126 | 71 | 205 | 11.3 | 13.0 | 0.00 | 0.00 | 0.00 | 52 | 1008.5 |
| 20260504141055 | 68 | 194 | 8.7 | 9.6 | 0.00 | 0.00 | 0.00 | 57 | 1009.0 |
| 20260504140551 | 68 | 227 | 6.1 | 8.7 | 0.00 | 0.00 | 0.00 | 57 | 1008.9 |
| 20260504130516 | 64 | 190 | 9.6 | 10.4 | 0.00 | 0.00 | 0.00 | 60 | 1009.4 |
| 20260504110403 | 61 | 124 | 3.5 | 4.3 | 0.00 | 0.00 | 0.00 | 63 | 1009.5 |
| 20260504100320 | 63 | 218 | 3.5 | 4.3 | 0.00 | 0.00 | 0.00 | 60 | 1010.0 |
| 20260504081714 | 64 | 223 | 3.5 | 3.5 | 0.00 | 0.00 | 0.00 | 56 | 1010.5 |
| 20260504081210 | 64 | 222 | 2.6 | 3.5 | 0.00 | 0.00 | 0.00 | 56 | 1010.3 |
| 20260504080706 | 64 | 226 | 3.5 | 4.3 | 0.00 | 0.00 | 0.00 | 56 | 1010.2 |
| 20260504080203 | 64 | 244 | 0.0 | 0.9 | 0.00 | 0.00 | 0.00 | 56 | 1010.3 |
| 20260504070131 | 64 | 222 | 0.9 | 0.9 | 0.00 | 0.00 | 0.00 | 56 | 1010.9 |
| 20260504050519 | 67 | 197 | 2.6 | 3.5 | 0.00 | 0.00 | 0.00 | 55 | 1011.6 |
| 20260504050016 | 67 | 218 | 2.6 | 2.6 | 0.00 | 0.00 | 0.00 | 54 | 1011.4 |
| 20260504045513 | 67 | 225 | 4.3 | 6.1 | 0.00 | 0.00 | 0.00 | 55 | 1011.5 |
| 20260504045008 | 67 | 198 | 4.3 | 6.1 | 0.00 | 0.00 | 0.00 | 55 | 1011.6 |
| 20260504044506 | 67 | 248 | 1.7 | 3.5 | 0.00 | 0.00 | 0.00 | 54 | 1011.7 |
| 20260504044003 | 67 | 203 | 1.7 | 3.5 | 0.00 | 0.00 | 0.00 | 54 | 1011.6 |
| 20260504043500 | 67 | 232 | 2.6 | 3.5 | 0.00 | 0.00 | 0.00 | 54 | 1011.6 |
| 20260504042958 | 67 | 179 | 1.7 | 2.6 | 0.00 | 0.00 | 0.00 | 54 | 1011.8 |
| 20260504042454 | 67 | 267 | 1.7 | 2.6 | 0.00 | 0.00 | 0.00 | 54 | 1011.6 |
| 20260504041951 | 67 | 257 | 3.5 | 4.3 | 0.00 | 0.00 | 0.00 | 53 | 1011.6 |
| 20260504041447 | 67 | 200 | 1.7 | 2.6 | 0.00 | 0.00 | 0.00 | 53 | 1011.6 |
| 20260504040943 | 67 | 245 | 2.6 | 3.5 | 0.00 | 0.00 | 0.00 | 53 | 1011.6 |
| 20260504040441 | 68 | 214 | 1.7 | 3.5 | 0.00 | 0.00 | 0.00 | 53 | 1011.8 |
| 20260504035936 | 68 | 210 | 3.5 | 4.3 | 0.00 | 0.00 | 0.00 | 53 | 1011.8 |
| 20260504035434 | 68 | 245 | 2.6 | 2.6 | 0.00 | 0.00 | 0.00 | 53 | 1011.7 |
| 20260504034931 | 68 | 222 | 3.5 | 3.5 | 0.00 | 0.00 | 0.00 | 52 | 1011.7 |
| 20260504034428 | 68 | 188 | 4.3 | 4.3 | 0.00 | 0.00 | 0.00 | 52 | 1011.7 |
| 20260504033925 | 68 | 200 | 2.6 | 3.5 | 0.00 | 0.00 | 0.00 | 53 | 1011.7 |
| 20260504033423 | 67 | 220 | 4.3 | 4.3 | 0.00 | 0.00 | 0.00 | 53 | 1011.8 |
| 20260504032920 | 67 | 204 | 0.9 | 2.6 | 0.00 | 0.00 | 0.00 | 53 | 1011.7 |
| 20260504032417 | 67 | 218 | 0.9 | 0.9 | 0.00 | 0.00 | 0.00 | 53 | 1011.7 |
| 20260504031913 | 67 | 240 | 0.9 | 0.9 | 0.00 | 0.00 | 0.00 | 53 | 1011.8 |
| 20260504031411 | 67 | 211 | 2.6 | 3.5 | 0.00 | 0.00 | 0.00 | 54 | 1011.8 |
| 20260504030907 | 67 | 222 | 1.7 | 2.6 | 0.00 | 0.00 | 0.00 | 53 | 1011.7 |
| 20260504030404 | 67 | 224 | 0.0 | 0.9 | 0.00 | 0.00 | 0.00 | 53 | 1011.9 |
| 20260504025900 | 68 | 243 | 0.9 | 0.9 | 0.00 | 0.00 | 0.00 | 53 | 1011.9 |
| 20260504025357 | 68 | 233 | 0.9 | 0.9 | 0.00 | 0.00 | 0.00 | 53 | 1011.6 |
| 20260504024854 | 68 | 227 | 3.5 | 6.1 | 0.00 | 0.00 | 0.00 | 52 | 1011.7 |
| 20260504024350 | 68 | 190 | 1.7 | 2.6 | 0.00 | 0.00 | 0.00 | 53 | 1011.7 |
| 20260504023848 | 68 | 179 | 1.7 | 2.6 | 0.00 | 0.00 | 0.00 | 54 | 1011.6 |
| 20260504023344 | 68 | 203 | 1.7 | 2.6 | 0.00 | 0.00 | 0.00 | 54 | 1011.6 |
| 20260504022839 | 68 | 233 | 1.7 | 2.6 | 0.00 | 0.00 | 0.00 | 56 | 1011.4 |
| 20260504022337 | 68 | 174 | 1.7 | 2.6 | 0.00 | 0.00 | 0.00 | 56 | 1011.5 |
| 20260504021833 | 67 | 235 | 0.0 | 0.0 | 0.00 | 0.00 | 0.00 | 57 | 1011.5 |
| 20260504021331 | 67 | 202 | 0.9 | 0.9 | 0.00 | 0.00 | 0.00 | 58 | 1011.5 |
| 20260504020828 | 67 | 163 | 2.6 | 3.5 | 0.00 | 0.00 | 0.00 | 58 | 1011.3 |
| 20260504020324 | 67 | 221 | 0.0 | 0.0 | 0.00 | 0.00 | 0.00 | 59 | 1011.4 |
| 20260504015820 | 67 | 218 | 0.0 | 0.0 | 0.00 | 0.00 | 0.00 | 58 | 1011.3 |
| 20260504015317 | 68 | 206 | 0.0 | 0.9 | 0.00 | 0.00 | 0.00 | 58 | 1011.3 |
| 20260504014813 | 69 | 206 | 0.9 | 0.9 | 0.00 | 0.00 | 0.00 | 59 | 1011.2 |
| 20260504014309 | 69 | 214 | 0.9 | 0.9 | 0.00 | 0.00 | 0.00 | 54 | 1011.4 |
| 20260504013807 | 69 | 189 | 1.7 | 2.6 | 0.00 | 0.00 | 0.00 | 54 | 1011.2 |
| 20260504013305 | 70 | 223 | 0.0 | 0.0 | 0.00 | 0.00 | 0.00 | 54 | 1011.2 |
| 20260504012800 | 70 | 197 | 1.7 | 2.6 | 0.00 | 0.00 | 0.00 | 53 | 1011.4 |
| 20260504012259 | 71 | 212 | 0.9 | 0.9 | 0.00 | 0.00 | 0.00 | 52 | 1011.1 |
| 20260504011755 | 72 | 192 | 1.7 | 2.6 | 0.00 | 0.00 | 0.00 | 50 | 1011.4 |
| 20260504011252 | 72 | 225 | 0.0 | 0.0 | 0.00 | 0.00 | 0.00 | 49 | 1011.3 |
| 20260504010748 | 72 | 213 | 0.9 | 2.6 | 0.00 | 0.00 | 0.00 | 49 | 1011.1 |
| 20260504010244 | 73 | 217 | 0.9 | 0.9 | 0.00 | 0.00 | 0.00 | 48 | 1011.1 |
| 20260504005741 | 73 | 219 | 1.7 | 2.6 | 0.00 | 0.00 | 0.00 | 47 | 1011.2 |
| 20260504005238 | 73 | 201 | 0.9 | 0.9 | 0.00 | 0.00 | 0.00 | 47 | 1011.1 |
| 20260504004736 | 74 | 166 | 0.9 | 0.9 | 0.00 | 0.00 | 0.00 | 46 | 1011.2 |
| 20260504004232 | 74 | 198 | 3.5 | 4.3 | 0.00 | 0.00 | 0.00 | 45 | 1011.1 |
| 20260504003729 | 75 | 202 | 2.6 | 3.5 | 0.00 | 0.00 | 0.00 | 44 | 1011.2 |
| 20260504003226 | 75 | 165 | 1.7 | 2.6 | 0.00 | 0.00 | 0.00 | 44 | 1011.2 |
| 20260504002723 | 76 | 227 | 1.7 | 3.5 | 0.00 | 0.00 | 0.00 | 43 | 1011.2 |
| 20260504002219 | 76 | 241 | 2.6 | 4.3 | 0.00 | 0.00 | 0.00 | 43 | 1011.3 |
| 20260504001718 | 77 | 230 | 3.5 | 4.3 | 0.00 | 0.00 | 0.00 | 41 | 1011.2 |
| 20260504001214 | 77 | 191 | 2.6 | 3.5 | 0.00 | 0.00 | 0.00 | 41 | 1011.2 |
| 20260504000711 | 77 | 179 | 3.5 | 3.5 | 0.00 | 0.00 | 0.00 | 40 | 1011.4 |
| 20260504000208 | 77 | 253 | 2.6 | 3.5 | 0.00 | 0.00 | 0.00 | 40 | 1011.5 |
| 20260503235706 | 78 | 216 | 4.3 | 4.3 | 0.00 | 0.00 | 0.00 | 38 | 1011.5 |
| 20260503235203 | 78 | 179 | 4.3 | 4.3 | 0.00 | 0.00 | 0.00 | 39 | 1011.6 |
| 20260503234700 | 79 | 260 | 1.7 | 2.6 | 0.00 | 0.00 | 0.00 | 38 | 1011.8 |
| 20260503234159 | 79 | 217 | 3.5 | 6.1 | 0.00 | 0.00 | 0.00 | 38 | 1011.9 |
| 20260503233655 | 78 | 330 | 1.7 | 2.6 | 0.00 | 0.00 | 0.00 | 39 | 1011.7 |
| 20260503233151 | 78 | 281 | 0.0 | 0.0 | 0.00 | 0.00 | 0.00 | 37 | 1011.9 |
| 20260503232648 | 78 | 269 | 0.0 | 0.9 | 0.00 | 0.00 | 0.00 | 38 | 1012.0 |
| 20260503232145 | 78 | 271 | 0.9 | 0.9 | 0.00 | 0.00 | 0.00 | 37 | 1012.0 |
| 20260503231643 | 79 | 317 | 0.9 | 0.9 | 0.00 | 0.00 | 0.00 | 36 | 1012.0 |
| 20260503231139 | 79 | 264 | 0.0 | 0.9 | 0.00 | 0.00 | 0.00 | 35 | 1012.0 |
| 20260503230636 | 79 | 271 | 2.6 | 3.5 | 0.00 | 0.00 | 0.00 | 36 | 1012.0 |
| 20260503230134 | 79 | 259 | 3.5 | 4.3 | 0.00 | 0.00 | 0.00 | 33 | 1012.0 |
| 20260503225631 | 80 | 194 | 3.5 | 4.3 | 0.00 | 0.00 | 0.00 | 32 | 1012.2 |
| 20260503225130 | 80 | 241 | 0.9 | 0.9 | 0.00 | 0.00 | 0.00 | 32 | 1011.9 |
| 20260503224628 | 80 | 270 | 2.6 | 4.3 | 0.00 | 0.00 | 0.00 | 32 | 1012.1 |
| 20260503224126 | 81 | 222 | 2.6 | 3.5 | 0.00 | 0.00 | 0.00 | 30 | 1012.1 |
| 20260503223624 | 81 | 284 | 1.7 | 3.5 | 0.00 | 0.00 | 0.00 | 29 | 1012.1 |
| 20260503223119 | 82 | 302 | 3.5 | 3.5 | 0.00 | 0.00 | 0.00 | 31 | 1012.1 |
| 20260503222617 | 81 | 276 | 2.6 | 4.3 | 0.00 | 0.00 | 0.00 | 30 | 1012.2 |
| 20260503222115 | 82 | 277 | 0.9 | 0.9 | 0.00 | 0.00 | 0.00 | 35 | 1012.2 |
| 20260503221613 | 83 | 203 | 2.6 | 3.5 | 0.00 | 0.00 | 0.00 | 34 | 1012.0 |
| 20260503221110 | 83 | 262 | 0.9 | 0.9 | 0.00 | 0.00 | 0.00 | 36 | 1012.2 |
| 20260503220607 | 82 | 233 | 3.5 | 4.3 | 0.00 | 0.00 | 0.00 | 36 | 1012.1 |
| 20260503220103 | 81 | 222 | 0.9 | 0.9 | 0.00 | 0.00 | 0.00 | 37 | 1012.3 |
| 20260503215600 | 80 | 161 | 6.1 | 8.7 | 0.00 | 0.00 | 0.00 | 34 | 1012.4 |
| 20260503215057 | 81 | 241 | 5.2 | 8.7 | 0.00 | 0.00 | 0.00 | 36 | 1012.5 |
| 20260503214555 | 82 | 207 | 2.6 | 3.5 | 0.00 | 0.00 | 0.00 | 36 | 1012.4 |
| 20260503214051 | 82 | 274 | 1.7 | 3.5 | 0.00 | 0.00 | 0.00 | 33 | 1012.5 |
| 20260503213550 | 83 | 256 | 4.3 | 6.1 | 0.00 | 0.00 | 0.00 | 34 | 1012.7 |
| 20260503213046 | 81 | 268 | 0.0 | 0.9 | 0.00 | 0.00 | 0.00 | 39 | 1012.7 |
| 20260503212544 | 80 | 188 | 5.2 | 8.7 | 0.00 | 0.00 | 0.00 | 35 | 1012.7 |
| 20260503212042 | 81 | 231 | 8.7 | 13.0 | 0.00 | 0.00 | 0.00 | 33 | 1013.1 |
| 20260503211538 | 82 | 203 | 2.6 | 6.1 | 0.00 | 0.00 | 0.00 | 38 | 1012.8 |
| 20260503211033 | 82 | 266 | 0.9 | 0.9 | 0.00 | 0.00 | 0.00 | 41 | 1013.1 |
| 20260503210531 | 82 | 249 | 2.6 | 3.5 | 0.00 | 0.00 | 0.00 | 35 | 1013.3 |
| 20260503210026 | 81 | 269 | 1.7 | 2.6 | 0.00 | 0.00 | 0.00 | 39 | 1013.3 |
| 20260503205523 | 81 | 282 | 1.7 | 3.5 | 0.00 | 0.00 | 0.00 | 38 | 1013.2 |
| 20260503205020 | 81 | 229 | 1.7 | 2.6 | 0.00 | 0.00 | 0.00 | 40 | 1013.4 |